Newark, NJ

8:10 AM EDT on August 17, 2017 (GMT -0400)
Newark International

Weather History for KEWR - May, 2014

Change the Weather History Date:

Monday, May 19, 2014

  Actual Average Record
Temperature  
Mean Temperature 62 °F 64 °F  
Max Temperature 73 °F 73 °F 98 °F (1962)
Min Temperature 50 °F 54 °F 39 °F (2002)
Degree Days  
Heating Degree Days 3 4  
Month to date heating degree days 61 105  
Since 1 July heating degree days 5153 4825  
Cooling Degree Days 0 2  
Month to date cooling degree days 20 25  
Year to date cooling degree days 28 37  
Growing Degree Days 12 (Base 50)    
Moisture  
Dew Point 34 °F    
Average Humidity 37    
Maximum Humidity 52    
Minimum Humidity 22    
Precipitation  
Precipitation 0.00 in 0.13 in 2.36 in (1966)
Month to date precipitation 1.97 2.39  
Year to date precipitation 21.29 17.19  
Snow  
Snow 0.00 in 0.00 in 0.00 in (2002)
Month to date snowfall 0.0 0.0  
Since 1 July snowfall 61.1 28.5  
Snow Depth 0.00 in    
Sea Level Pressure  
Sea Level Pressure 30.14 in    
Wind  
Wind Speed 10 mph (WNW)    
Max Wind Speed 18 mph    
Max Gust Speed 28 mph    
Visibility 10 miles    
Events      
T = Trace of Precipitation, MM = Missing Value Source: NWS Daily Summary

Daily Weather History Graph

Daily Weather History Graph

Search for Another Location

Airport or City:

Trip Planner

Search our weather history database for the weather conditions in past years. The results will help you decide how hot, cold, wet, or windy it might be!

Date:

Astronomy

May. 19, 2014 Rise Set
Actual Time 5:36 AM EDT 8:10 PM EDT
Civil Twilight 5:04 AM EDT 8:42 PM EDT
Nautical Twilight 4:25 AM EDT 9:21 PM EDT
Astronomical Twilight 3:41 AM EDT 10:05 PM EDT
Moon No Moon Rise 10:31 AM EDT (5/19)
Length of Visible Light 15h 37m
Length of Day
14h 34m
Waning Gibbous, 71% of the Moon is Illuminated
May 19
Waning Gibbous
May 21
Last Quarter
May 28
New
Jun 5
First Quarter
Jun 13
Full

Hourly Weather History & Observations

Time (EDT) Temp. Dew Point Humidity Pressure Visibility Wind Dir Wind Speed Gust Speed Precip Events Conditions
12:51 AM 55.0 °F 30.9 °F 40% 30.17 in 10.0 mi NW 8.1 mph - N/A   Clear
1:51 AM 53.1 °F 30.0 °F 41% 30.17 in 10.0 mi WNW 4.6 mph - N/A   Clear
2:51 AM 53.1 °F 30.0 °F 41% 30.17 in 10.0 mi WNW 5.8 mph - N/A   Clear
3:51 AM 52.0 °F 28.9 °F 41% 30.18 in 10.0 mi Calm Calm - N/A   Clear
4:51 AM 51.8 °F 30.2 °F 44% 30.19 in 10.0 mi Calm Calm - N/A   Clear
5:51 AM 50.0 °F 33.1 °F 52% 30.21 in 10.0 mi West 4.6 mph - N/A   Clear
6:51 AM 52.0 °F 34.0 °F 50% 30.22 in 10.0 mi Calm Calm - N/A   Clear
7:51 AM 55.4 °F 35.6 °F 47% 30.22 in 10.0 mi West 4.6 mph - N/A   Clear
10:51 AM 64.9 °F 35.1 °F 33% 30.19 in 10.0 mi WNW 5.8 mph - N/A   Partly Cloudy
11:51 AM 68.0 °F 34.0 °F 28% 30.17 in 10.0 mi NNW 15.0 mph 20.7 mph N/A   Scattered Clouds
12:51 PM 71.1 °F 33.1 °F 25% 30.14 in 10.0 mi NW 16.1 mph 25.3 mph N/A   Scattered Clouds
1:51 PM 71.1 °F 30.9 °F 23% 30.12 in 10.0 mi NNW 12.7 mph 23.0 mph N/A   Mostly Cloudy
2:51 PM 73.0 °F 33.1 °F 23% 30.10 in 10.0 mi WNW 11.5 mph 19.6 mph N/A   Mostly Cloudy
3:51 PM 71.1 °F 30.0 °F 22% 30.08 in 10.0 mi NW 19.6 mph 29.9 mph N/A   Mostly Cloudy
5:51 PM 69.1 °F 35.1 °F 29% 30.08 in 10.0 mi WNW 27.6 mph 36.8 mph N/A   Mostly Cloudy
6:51 PM 66.9 °F 37.9 °F 34% 30.08 in 10.0 mi WNW 12.7 mph 24.2 mph N/A   Scattered Clouds
7:51 PM 66.9 °F 36.0 °F 32% 30.08 in 10.0 mi WNW 13.8 mph 26.5 mph N/A   Scattered Clouds
8:51 PM 64.0 °F 39.0 °F 40% 30.10 in 10.0 mi WNW 10.4 mph 27.6 mph N/A   Scattered Clouds
8:56 PM 64.4 °F 39.2 °F 40% 30.10 in 10.0 mi West 12.7 mph 26.5 mph N/A   Scattered Clouds
9:51 PM 62.1 °F 41.0 °F 46% 30.11 in 10.0 mi West 10.4 mph 18.4 mph N/A   Scattered Clouds
10:51 PM 61.0 °F 39.9 °F 46% 30.12 in 10.0 mi NW 8.1 mph - N/A   Partly Cloudy
11:51 PM 59.0 °F 41.0 °F 51% 30.12 in 10.0 mi West 9.2 mph - N/A   Partly Cloudy